DECAYED

STARLINK-3322, 50838 (Decayed)

Orbit data source: Space-Track

STARLINK-3322, 50838 was a payload satellite owned by SpaceX/Seattle (US) in LEO that was launched on Thu, 06 Jan 2022 UTC via an FALCON 9 launch vehicle from the Air Force Eastern Test Range (AFETR). Payload-class satellites include a variety of spacecraft equipped with specific instruments for various scientific and technological missions. These include communications satellites like Starlink; space stations such as the ISS; scientific satellites like the Hubble; Earth observation satellites from companies like Planet Labs, Umbra, and HawkEye 360; GPS; miniature CubeSats for education and research; and military/defense satellites.

Not visible in the next 10 days
Identifier
50838, 2022-001AM
Orbit
Decayed
Country
Flag of USUS
Related business
Manufacturer
SpaceX/Seattle
Mission
Decayed Commercial Communications
Bus & Motor
STARLINK, Unknown motor
Mass
297 kg wet, ~275 kg dry
Launch date (UTC)
2022-01-06 (4 years ago)
Launch vehicle
FALCON 9
Launch site
Air Force Eastern Test Range (AFETR)
Object type
Payload
Rocket body
Debris
Shape & HBR
Box + 1 Pan, 10.1 m
Radar Cross Section
13.562 m², Large (>1 m²)

Expand to show TLE details & history
Last TLE update: 6 months ago

TLE from 6 months ago
0 STARLINK-3322
1 50838U 22001AM  25340.58245446  .13020513  12565-4  21087-3 0  9990
2 50838  53.1592 111.1628 0002849 253.7178 106.3561 16.48149335217979
Epoch: 2025-12-06T13:58Z
TLE epoch observation values (Epoch: 2025-12-06T13:58:44.065Z)
Latitude
0.00004°
Longitude
-174.12889°
Altitude
145.682 km
Speed
7.82 km/s
True Right ascension
07h 24m 39s
True Declination
0° 00' 00"
Sunlit
Object was in full shadow at epoch
Visualization orbit readout
Latitude
Unknown
Longitude
Unknown
Altitude
Unknown
Speed
Unknown
Apparent Right ascension
Unknown
Apparent Declination
Unknown
Sunlit
N/A
Visualization observer readout
Local Sidereal Time
21:27:06
Azimuth
Unknown
Elevation
Unknown
Doppler factor
Unknown
Orbital elements
Apogee altitude
146.341 km
Perigee altitude
142.624 km
Semi-major axis
6,522.62 km
Eccentricity
0.00028
Inclination
53.1592°
RAAN
111.1628°
Arg. of periapsis
253.7178°
True anomaly
106.38742°
Mean anomaly
106.3561°
Eccentric anomaly
106.37176°
Mean motion
4.12012 °/min
Orbital period
87.38 mins
BSTAR
0.00021087
Loading maneuver chart data...
Computing Atmospheric mass density...
Loading historical data...
Loading historical data...
Loading historical data...
Loading historical data...
Loading historical data...
Loading historical data...
Loading historical data...

Documentation

Showing up to 5 results
|